Other Surface Observations
Issued by NWS

Home | Current Version | Previous Version | Text Only | Print | Product List | Glossary On
Versions: 1 2 3 4 5 6 7 8 9 10 11 12 13 14 15 16 17 18 19 20 21 22 23 24 25 26 27 28 29 30 31 32 33 34 35 36 37 38 39 40 41 42 43 44 45 46 47 48 49 50
000
SXUS52 KTAE 021218
OSOTAE
OSOTAE
North Florida/South Alabama/Southwest Georgia Weather Roundup
National Weather Service Tallahassee Florida
800 AM EDT THU JUL 02 2015

Note: "fair" indicates few or no clouds below 12,000 feet with no
significant weather and/or obstructions to visibility.

!FLZ017-115-028-034-025-021300
...North Florida...

CITY           SKY/WX    TMP DP  RH WIND       PRES   REMARKS
TALLAHASSEE    MOSUNNY   77  73  87 W6        30.08R
APALACHICOLA   MOSUNNY   78  71  79 NW5       30.08R
PERRY          NOT AVBL
CROSS CITY       N/A     80  72  76 CALM      30.08S
JACKSONVILLE   MOSUNNY   78  73  84 W9        30.07R
$$

!FLZ112-006-005-002-011-021300
...Florida Panhandle...

CITY           SKY/WX    TMP DP  RH WIND       PRES   REMARKS
MARIANNA       PTSUNNY   76  73  91 SW6       30.08R
BONIFAY          N/A     73  71  93 CALM      30.09R
PANAMA CITY NW FAIR      77  75  93 CALM      30.08R
TYNDALL AFB    MOSUNNY   82  73  74 W8        30.09R
TYND DRONE APT FAIR      82  73  76 SW5       30.09R
DE FUNIAK SPR  NOT AVBL
EGLIN AFB      PTSUNNY   80  73  78 W1        30.07S
DESTIN         PTSUNNY   82  75  79 SW5       30.07S
HURLBURT       MOSUNNY   80  72  75 W3        30.06S
CRESTVIEW      PTSUNNY   74  71  91 CALM      30.09S
PENSACOLA      MOSUNNY   78  73  84 SW5       30.06S
$$

!ALZ063-066-021300
...South Alabama...

CITY           SKY/WX    TMP DP  RH WIND       PRES   REMARKS
DOTHAN         CLOUDY    73  68  84 SW7       30.11R
OZARK CAIRNS   PTSUNNY   72  69  92 SW3       30.07S
FT RUCKER HELI PTSUNNY   73  69  87 W3        30.07R
RUCKER HELI 3  FAIR      72  68  87 W6        30.09R
RUCKER HELI 2  FAIR      71  71 100 CALM      30.07R
FLORALA APT    MOSUNNY   73  70  90 CALM      30.09S
ANDALUSIA      PTSUNNY   75  69  81 CALM      30.08R
TROY           MOSUNNY   72  70  93 SW5       30.07S
EUFALA         FAIR      75  69  81 SW5       30.05R
MOBILE         PTSUNNY   75  72  90 SW9       30.09R
$$

!GAZ120>161-021300
...Southwest and South Central Georgia...

CITY           SKY/WX    TMP DP  RH WIND       PRES   REMARKS
THOMASVILLE    NOT AVBL
BAINBRIDGE     NOT AVBL
MOODY AFB      SUNNY     76  70  81 SW9       30.07R
VALDOSTA       SUNNY     76  73  91 VRB3      30.08R
MOULTRIE       NOT AVBL
BLAKELY        NOT AVBL
ALBANY         MOSUNNY   74  69  85 SW8       30.09R
TIFTON         NOT AVBL
FITZGERALD     NOT AVBL
CORDELE        NOT AVBL
AMERICUS       NOT AVBL
HOMERVILLE     NOT AVBL
$$

!GMZ750-755-770-775-021300
...Coastal and Buoy Obs...

STATION/POSITION TIME  TEMP    WIND        PRES    VSBY  WAVE
                       AIR SEA DIR/SP/G                  HT/PER
                 (UTC) (F)     (DEG/KT/KT) (MB)    (MI)  (FT/S)
KEATON BEACH     1200   82     270/  9/ 11 1018.8R
CEDAR KEY        1200   85     310/  5/  7 1019.3R
C TOWER          1200   82     300/  6/  7 1018.9R
APALACHICOLA BUO 1150   84 85  320/  6/  6 1019.0R         2/ 6
PANAMA CITY BUOY 1150   81 83  270/  2/  2 1019.4R         2/ 9
MOBILE BUOY      1150   76 84  180/ 16/ 21 1020.5R         3/ 3
ORANGE BCH AL BU 1150   79 82  220/ 19/ 23 1016.9F         2/ 3
$$



USA.gov is the U.S. government's official web portal to all federal, state and local government web resources and services.